contact:dominique.lefevre@mio.osupytheas.fr, maurice.libes@osupytheas.fr
Project:EMSO Ligure-ouest http://www.emso-fr.org/EMSO-France
Sensor Aquadopp, line 04 Serial AQD8517 
DOI : "https://doi.org/10.17882/74513; https://doi.org/10.17882/83244" 
Title:EMSO Ligure Ouest : Data ligne ALBATROSS capteur AQUADOPP - deploiement 2021
Id,Date,Profondeur,Latitude,Longitude,X_East,Y_North,Z_Up,Amplitude_X,Amplitude_Y,Amplitude_Z,Batterie,SoundSpeed,Heading,Pitch,Roll,Pressure,Temperature,Speed,Direction
, , m, degrees North, degrees East, m.s-1, m.s-1,m.s-1, 1, 1, 1, Volt, m.s-1, degree, degree, degree, dbar, degree_C, m.s-1, degree
01,2022-05-24T21:00:00,500.0,42.79,6.0312,-0.036,-0.055,-0.003,64.0,61.0,61.0,11.8,1506.2,225.6,0.0,0.7,451.845,13.77,0.065,213.2
01,2022-05-24T21:30:00,500.0,42.79,6.0312,-0.045,-0.05,0.01,68.0,60.0,61.0,11.8,1506.2,233.9,-0.2,0.6,451.893,13.78,0.067,222.0
01,2022-05-24T22:00:00,500.0,42.79,6.0312,-0.047,-0.05,-0.01,67.0,63.0,63.0,11.8,1506.2,223.1,-0.2,0.6,451.898,13.79,0.068,223.2
01,2022-05-24T22:30:00,500.0,42.79,6.0312,-0.047,-0.038,-0.009,67.0,61.0,64.0,11.8,1506.2,225.4,0.0,0.6,451.908,13.79,0.06,231.0
01,2022-05-24T23:00:00,500.0,42.79,6.0312,-0.047,-0.064,0.008,69.0,63.0,63.0,11.8,1506.2,216.1,0.2,0.6,451.942,13.79,0.079,216.3
01,2022-05-24T23:30:00,500.0,42.79,6.0312,-0.015,-0.057,-0.008,67.0,61.0,63.0,11.8,1506.2,207.0,-0.1,0.5,451.928,13.79,0.058,194.7
01,2022-05-25T00:00:00,500.0,42.79,6.0312,-0.028,-0.059,0.011,67.0,65.0,63.0,11.8,1506.1,215.4,-0.6,0.7,451.993,13.75,0.065,205.4
01,2022-05-25T00:30:00,500.0,42.79,6.0312,-0.021,-0.057,0.013,68.0,63.0,65.0,11.8,1506.1,199.1,-0.1,0.7,452.001,13.75,0.06,200.2
01,2022-05-25T01:00:00,500.0,42.79,6.0312,-0.008,-0.067,-0.012,66.0,63.0,64.0,11.8,1506.1,196.8,-0.1,0.7,451.94,13.75,0.067,186.8
01,2022-05-25T01:30:00,500.0,42.79,6.0312,0.006,-0.052,0.019,69.0,63.0,63.0,11.8,1506.1,193.4,-0.1,0.6,452.025,13.75,0.052,173.4
01,2022-05-25T02:00:00,500.0,42.79,6.0312,0.008,-0.063,0.008,67.0,61.0,64.0,11.8,1506.1,198.7,0.1,0.5,452.058,13.75,0.063,172.8
01,2022-05-25T02:30:00,500.0,42.79,6.0312,0.016,-0.082,0.005,65.0,62.0,61.0,11.8,1506.1,189.1,-0.4,0.7,452.095,13.75,0.083,169.0
01,2022-05-25T03:00:00,500.0,42.79,6.0312,0.034,-0.062,0.0,66.0,61.0,62.0,11.8,1506.1,179.4,-0.2,0.6,452.081,13.76,0.07,151.3
01,2022-05-25T03:30:00,500.0,42.79,6.0312,-0.01,-0.076,0.005,63.0,60.0,58.0,11.8,1506.2,198.7,-0.2,0.7,451.997,13.77,0.076,187.5
01,2022-05-25T04:00:00,500.0,42.79,6.0312,-0.02,-0.06,0.018,65.0,59.0,60.0,11.8,1506.2,217.1,0.1,0.6,452.028,13.78,0.063,198.4
01,2022-05-25T04:30:00,500.0,42.79,6.0312,-0.004,-0.07,-0.006,65.0,61.0,64.0,11.8,1506.2,196.2,-0.2,0.8,452.067,13.78,0.07,183.3
01,2022-05-25T05:00:00,500.0,42.79,6.0312,-0.035,-0.064,-0.002,67.0,63.0,62.0,11.8,1506.2,222.9,0.0,0.6,452.125,13.78,0.072,208.7
01,2022-05-25T05:30:00,500.0,42.79,6.0312,-0.049,-0.05,0.018,66.0,62.0,63.0,11.8,1506.3,234.5,-0.3,0.7,452.043,13.8,0.07,224.4
01,2022-05-25T06:00:00,500.0,42.79,6.0312,-0.043,-0.056,0.017,66.0,62.0,62.0,11.8,1506.2,234.2,-0.1,0.8,452.035,13.78,0.07,217.5
01,2022-05-25T06:30:00,500.0,42.79,6.0312,-0.026,-0.062,0.017,68.0,63.0,63.0,11.8,1506.2,224.5,-0.5,0.6,452.042,13.78,0.067,202.7
01,2022-05-25T07:00:00,500.0,42.79,6.0312,-0.046,-0.048,0.002,67.0,61.0,63.0,11.8,1506.2,235.5,-0.4,0.7,452.058,13.78,0.066,223.8
01,2022-05-25T07:30:00,500.0,42.79,6.0312,-0.053,-0.064,0.003,66.0,62.0,63.0,11.8,1506.3,225.9,-0.4,0.6,452.033,13.8,0.083,219.6
01,2022-05-25T08:00:00,500.0,42.79,6.0312,-0.046,-0.048,0.014,66.0,61.0,61.0,11.8,1506.2,239.0,-0.1,0.6,451.98,13.78,0.066,223.8
01,2022-05-25T08:30:00,500.0,42.79,6.0312,-0.054,-0.046,-0.001,67.0,60.0,63.0,11.8,1506.3,231.0,-0.3,0.6,451.954,13.8,0.07,229.6
01,2022-05-25T09:00:00,500.0,42.79,6.0312,-0.037,-0.064,0.007,66.0,63.0,62.0,11.8,1506.3,219.8,-0.1,0.7,451.964,13.81,0.073,210.0
01,2022-05-25T09:30:00,500.0,42.79,6.0312,-0.042,-0.037,-0.008,66.0,61.0,61.0,11.8,1506.3,231.0,-0.5,0.7,452.01,13.81,0.055,228.6
01,2022-05-25T10:00:00,500.0,42.79,6.0312,-0.038,-0.074,0.003,67.0,60.0,61.0,11.8,1506.3,222.4,-0.5,0.7,451.943,13.81,0.083,207.2
01,2022-05-25T10:30:00,500.0,42.79,6.0312,-0.071,-0.065,0.006,65.0,62.0,61.0,11.8,1506.2,231.5,0.0,0.7,451.929,13.79,0.096,227.5
01,2022-05-25T11:00:00,500.0,42.79,6.0312,0.002,-0.096,-0.012,65.0,62.0,61.0,11.8,1506.2,178.7,-0.3,0.4,451.96,13.77,0.096,178.8
01,2022-05-25T11:30:00,500.0,42.79,6.0312,-0.065,-0.064,0.011,64.0,60.0,60.0,11.8,1506.2,222.4,0.3,0.8,451.968,13.77,0.091,225.4
01,2022-05-25T12:00:00,500.0,42.79,6.0312,-0.017,-0.064,0.012,67.0,60.0,60.0,11.8,1506.2,190.8,-0.1,0.6,451.985,13.77,0.066,194.9
01,2022-05-25T12:30:00,500.0,42.79,6.0312,-0.037,-0.056,0.001,64.0,60.0,61.0,11.8,1506.1,207.6,-0.3,0.7,452.022,13.76,0.067,213.5
01,2022-05-25T13:00:00,500.0,42.79,6.0312,-0.012,-0.067,0.011,64.0,62.0,61.0,11.8,1506.1,189.9,-0.2,0.7,452.054,13.76,0.068,190.2
01,2022-05-25T13:30:00,500.0,42.79,6.0312,-0.02,-0.057,-0.005,66.0,60.0,59.0,11.8,1506.1,199.5,-0.5,0.6,452.107,13.75,0.06,199.3
01,2022-05-25T14:00:00,500.0,42.79,6.0312,-0.028,-0.066,-0.006,63.0,60.0,60.0,11.8,1506.1,220.8,-0.7,0.7,452.065,13.75,0.071,203.0
01,2022-05-25T14:30:00,500.0,42.79,6.0312,-0.001,-0.068,0.0,62.0,61.0,60.0,11.8,1506.1,197.9,-0.5,0.6,452.031,13.76,0.068,180.8
01,2022-05-25T15:00:00,500.0,42.79,6.0312,-0.021,-0.05,0.006,63.0,60.0,60.0,11.8,1506.1,210.8,0.3,0.6,452.047,13.76,0.054,202.8
01,2022-05-25T15:30:00,500.0,42.79,6.0312,-0.031,-0.057,-0.008,65.0,59.0,60.0,11.8,1506.1,210.8,0.0,0.8,452.073,13.76,0.064,208.5
01,2022-05-25T16:00:00,500.0,42.79,6.0312,-0.038,-0.074,-0.001,63.0,58.0,58.0,11.8,1506.1,209.7,0.4,0.6,452.1,13.76,0.083,207.2
01,2022-05-25T16:30:00,500.0,42.79,6.0312,-0.07,-0.07,-0.006,64.0,62.0,58.0,11.8,1506.1,230.0,-0.5,0.9,452.085,13.75,0.098,225.0
01,2022-05-25T17:00:00,500.0,42.79,6.0312,-0.064,-0.062,0.018,65.0,59.0,60.0,11.8,1506.1,219.3,-0.1,0.7,452.086,13.75,0.089,225.9
01,2022-05-25T17:30:00,500.0,42.79,6.0312,-0.051,-0.073,0.008,64.0,60.0,61.0,11.8,1506.1,228.2,-0.2,1.0,452.07,13.74,0.089,214.9
01,2022-05-25T18:00:00,500.0,42.79,6.0312,-0.087,-0.067,0.013,65.0,59.0,60.0,11.8,1506.1,231.7,-0.4,0.9,452.037,13.74,0.109,232.4
01,2022-05-25T18:30:00,500.0,42.79,6.0312,-0.036,-0.092,-0.011,65.0,60.0,61.0,11.8,1506.1,213.1,-0.3,0.6,452.072,13.74,0.098,201.4
01,2022-05-25T19:00:00,500.0,42.79,6.0312,0.045,-0.079,0.021,66.0,60.0,59.0,11.8,1506.1,160.4,-0.1,0.6,452.079,13.74,0.09,150.3
01,2022-05-25T19:30:00,500.0,42.79,6.0312,-0.054,-0.074,0.0,64.0,60.0,60.0,11.8,1506.1,222.1,-0.4,0.8,452.025,13.74,0.091,216.1
01,2022-05-25T20:00:00,500.0,42.79,6.0312,-0.071,-0.063,0.016,64.0,59.0,60.0,11.8,1506.0,238.1,-0.3,1.0,452.074,13.73,0.094,228.4
01,2022-05-25T20:30:00,500.0,42.79,6.0312,-0.046,-0.081,0.012,64.0,59.0,60.0,11.8,1506.0,217.5,-0.3,0.7,452.028,13.73,0.093,209.6
01,2022-05-25T21:00:00,500.0,42.79,6.0312,-0.018,-0.104,-0.008,65.0,60.0,60.0,11.8,1506.1,208.4,-0.1,0.3,452.025,13.74,0.105,189.8
